FLOCK 4Y-17 (55031 NORAD) Tracking and Keplerian Element Data

This shows tracking and keplerian element data for the satellite.

Feedback or suggestion? Click here.




ElementValue
Catalog55031
NameFLOCK 4Y-17
Epoch Orbit1245
Epoch Day84.91291371
Epoch Year2023
RAAN145.7563
Inclination97.49
Eccentricity0.0009991
Argument of Perigee299.9392
Mean Anonmoly60.0848
Mean Motion15.15807514
Decay Rate0.00039834
L11 55031U 23001Y 23084.91291371 .00039834 00000+0 20767-2 0 9990
L22 55031 97.4900 145.7563 0009991 299.9392 60.0848 15.15807514 12452



Live tracking and technical data element details for FLOCK 4Y-17 (NORAD 55031). FLOCK 4Y-17 can be tracked NOW for your location showing map with azimuth and elevation plus other details from your city location.







IsCatalogInMostPopularTable: catalog: 55031, numindb: 9
Update: records affected: 1



GetName: 55031 FLOCK 4Y-17

Hit Count: updated at: Mon, 27 Mar 2023 07:45:30 GMT